Cienfuegos, Cuba

12:18 PM CST on December 05, 2019 (GMT -0500)
Jaime Gonzalez

Weather History for MUCF - October, 2019

Change the Weather History Date:

Thursday, October 17, 2019

  Actual Average Record
Temperature  
Mean Temperature 83 °F -  
Max Temperature 89 °F - - ()
Min Temperature 77 °F - - ()
Cooling Degree Days 18    
Growing Degree Days 33 (Base 50)    
Moisture  
Dew Point 77 °F    
Average Humidity 89    
Maximum Humidity 100    
Minimum Humidity 66    
Precipitation  
Precipitation 0.00 in - - ()
Sea Level Pressure  
Sea Level Pressure 29.94 in    
Wind  
Wind Speed 3 mph ()    
Max Wind Speed 10 mph    
Max Gust Speed -    
Visibility 5.8 miles    
Events      
T = Trace of Precipitation, MM = Missing Value Source: Averaged Metar Reports

Daily Weather History Graph

Daily Weather History Graph

Search for Another Location

Airport or City:

Astronomy

Oct. 17, 2019 Rise Set
Actual Time 7:18 AM CDT 6:55 PM CDT
Civil Twilight 6:55 AM CDT 7:17 PM CDT
Nautical Twilight 6:29 AM CDT 7:43 PM CDT
Astronomical Twilight 6:03 AM CDT 8:09 PM CDT
Moon 9:47 PM CDT (10/17) 10:28 AM CDT (10/17)
Length of Visible Light 12h 21m
Length of Day
11h 36m
Waning Gibbous, 87% of the Moon is Illuminated
Oct 17
Waning Gibbous
Oct 21
Last Quarter
Oct 27
New
Nov 4
First Quarter
Nov 12
Full

Hourly Weather History & Observations

Time (CDT) Temp. Heat Index Dew Point Humidity Pressure Visibility Wind Dir Wind Speed Gust Speed Precip Events Conditions
12:58 AM 78.8 °F - 77.0 °F 94% 29.95 in - North 3.5 mph - N/A   Unknown
1:58 AM 77.0 °F - 77.0 °F 100% 29.95 in - ESE 2.3 mph - N/A   Unknown
2:58 AM 77.0 °F - 77.0 °F 100% 29.95 in - Variable 1.2 mph - N/A   Unknown
4:58 AM 77.0 °F - 77.0 °F 100% 29.92 in - ESE 3.5 mph - N/A   Unknown
5:58 AM 77.0 °F - 77.0 °F 100% 29.92 in - Variable 1.2 mph - N/A   Unknown
6:58 AM 77.0 °F - 77.0 °F 100% 29.92 in - ESE 3.5 mph - N/A   Unknown
7:59 AM 77.0 °F - 77.0 °F 100% 29.95 in - NE 3.5 mph - N/A   Unknown
8:51 AM 78.8 °F - 77.0 °F 94% 29.98 in 6.2 mi North 3.5 mph - N/A   Scattered Clouds
9:55 AM 80.6 °F 88.1 °F 78.8 °F 94% 30.01 in 5.6 mi Variable 2.3 mph - N/A   Overcast
10:54 AM 82.4 °F 92.4 °F 78.8 °F 89% 30.01 in 5.6 mi Variable 2.3 mph - N/A   Overcast
11:51 AM 86.0 °F 99.3 °F 78.8 °F 79% 29.98 in 5.6 mi Variable 2.3 mph - N/A   Scattered Clouds
12:51 PM 89.6 °F 102.2 °F 77.0 °F 66% 29.95 in 6.2 mi SSW 4.6 mph - N/A   Scattered Clouds
1:50 PM 87.8 °F 99.7 °F 77.0 °F 70% 29.92 in 5.6 mi WSW 9.2 mph - N/A   Partly Cloudy
2:51 PM 87.8 °F 99.7 °F 77.0 °F 70% 29.92 in 6.2 mi SW 10.4 mph - N/A   Scattered Clouds
3:50 PM 87.8 °F 102.5 °F 78.8 °F 75% 29.89 in 5.6 mi SSW 5.8 mph - N/A   Scattered Clouds
4:59 PM 87.8 °F 99.7 °F 77.0 °F 70% 29.92 in - Variable 4.6 mph - N/A   Unknown
5:59 PM 82.4 °F 90.9 °F 77.0 °F 84% 29.92 in - ENE 3.5 mph - N/A   Unknown
6:59 PM 80.6 °F 87.1 °F 77.0 °F 89% 29.92 in - East 3.5 mph - N/A   Unknown
7:58 PM 78.8 °F - 77.0 °F 94% 29.92 in - ENE 4.6 mph - N/A   Unknown
8:58 PM 78.8 °F - 77.0 °F 94% 29.95 in - NE 5.8 mph - N/A   Unknown
9:59 PM 77.0 °F - 75.2 °F 94% 29.95 in - NE 2.3 mph - N/A   Unknown
10:58 PM 77.0 °F - 75.2 °F 94% 29.98 in - Variable 1.2 mph - N/A   Unknown
11:58 PM 77.0 °F - 75.2 °F 94% 29.95 in - Variable 1.2 mph - N/A   Unknown